AB5KT-1 Weather Reports


Display with metric or nautical units.
time (UTC)temp
F
wind
direction
speed
MPH
gust
MPH
rain 1hr
in
rain 24hr
in
rain mn
in
humidity
%
barometer
mb
20260905204614 98 110 2.0 7.0 0.00 0.00 0.00 45 1011.7
20260905204113 97 144 3.0 8.0 0.00 0.00 0.00 46 1012.0
20260905203618 98 44 3.0 8.0 0.00 0.00 0.00 44 1012.1
20260905203614 97 73 3.0 8.0 0.00 0.00 0.00 45 1012.0
20260905202614 98 154 2.0 8.0 0.00 0.00 0.00 44 1012.1
20260905202112 98 119 3.0 8.0 0.00 0.00 0.00 44 1012.2
20260905201609 97 123 4.0 8.0 0.00 0.00 0.00 42 1012.3
20260905201109 98 114 3.0 8.0 0.00 0.00 0.00 42 1012.4
20260905200610 98 119 3.0 7.0 0.00 0.00 0.00 42 1012.5
20260905200110 97 113 3.0 8.0 0.00 0.00 0.00 43 1012.8
20260905195609 97 148 2.0 8.0 0.00 0.00 0.00 42 1012.7
20260905195110 96 121 2.0 8.0 0.00 0.00 0.00 42 1012.9
20260905194612 97 219 3.0 11.0 0.00 0.00 0.00 43 1013.1
20260905194608 96 130 3.0 11.0 0.00 0.00 0.00 43 1013.0
20260905193608 97 132 3.0 8.0 0.00 0.00 0.00 43 1013.2
20260905193105 97 111 4.0 8.0 0.00 0.00 0.00 40 1013.3
20260905192605 96 205 3.0 7.0 0.00 0.00 0.00 45 1013.4
20260905192106 97 160 2.0 8.0 0.00 0.00 0.00 44 1013.5
20260905191606 96 143 2.0 8.0 0.00 0.00 0.00 45 1013.6
20260905191105 96 98 1.0 4.0 0.00 0.00 0.00 47 1013.6
20260905190606 94 28 2.0 5.0 0.00 0.00 0.00 50 1013.7
20260905190106 95 113 2.0 6.0 0.00 0.00 0.00 47 1014.0
20260905185603 95 160 2.0 6.0 0.00 0.00 0.00 48 1014.0
20260905185103 95 105 2.0 9.0 0.00 0.00 0.00 50 1014.1
20260905184604 94 118 2.0 9.0 0.00 0.00 0.00 53 1014.1
20260905184101 93 111 2.0 9.0 0.00 0.00 0.00 53 1014.2
20260905183559 93 117 2.0 9.0 0.00 0.00 0.00 53 1014.2
20260905183100 93 68 2.0 9.0 0.00 0.00 0.00 53 1014.3
20260905182558 92 179 3.0 9.0 0.00 0.00 0.00 55 1014.3
20260905182057 92 178 3.0 10.0 0.00 0.00 0.00 55 1014.4
20260905181558 92 101 3.0 10.0 0.00 0.00 0.00 57 1014.5
20260905181056 92 122 3.0 8.0 0.00 0.00 0.00 57 1014.6
20260905180555 91 121 4.0 8.0 0.00 0.00 0.00 58 1014.6
20260905180056 92 11 4.0 9.0 0.00 0.00 0.00 57 1014.7
20260905175556 91 126 5.0 11.0 0.00 0.00 0.00 60 1014.8
20260905175055 91 143 4.0 11.0 0.00 0.00 0.00 61 1014.8
20260905174555 91 170 2.0 7.0 0.00 0.00 0.00 61 1014.8
20260905174054 91 135 3.0 8.0 0.00 0.00 0.00 59 1014.9
20260905173553 91 165 3.0 8.0 0.00 0.00 0.00 62 1014.9
20260905173053 91 164 2.0 7.0 0.00 0.00 0.00 61 1015.0
20260905172556 90 111 2.0 7.0 0.00 0.00 0.00 63 1015.2
20260905172552 91 98 2.0 7.0 0.00 0.00 0.00 60 1015.1
20260905171549 89 175 2.0 6.0 0.00 0.00 0.00 63 1015.2
20260905171048 89 119 2.0 7.0 0.00 0.00 0.00 64 1015.2
20260905170545 89 121 2.0 7.0 0.00 0.00 0.00 64 1015.4
20260905170050 89 121 2.0 8.0 0.00 0.00 0.00 65 1015.5
20260905170046 90 117 2.0 8.0 0.00 0.00 0.00 64 1015.5
20260905165046 89 82 1.0 5.0 0.00 0.00 0.00 68 1015.5
20260905164545 87 203 2.0 8.0 0.00 0.00 0.00 69 1015.4
20260905164046 87 139 2.0 8.0 0.00 0.00 0.00 69 1015.4
20260905163547 88 157 2.0 7.0 0.00 0.00 0.00 68 1015.5
20260905163046 89 69 2.0 7.0 0.00 0.00 0.00 67 1015.5
20260905162550 88 122 3.0 9.0 0.00 0.00 0.00 69 1015.6
20260905162546 89 107 2.0 6.0 0.00 0.00 0.00 67 1015.6
20260905161544 87 104 2.0 9.0 0.00 0.00 0.00 70 1015.6
20260905161048 86 157 3.0 9.0 0.00 0.00 0.00 72 1015.6
20260905161044 87 142 3.0 9.0 0.00 0.00 0.00 71 1015.6
20260905160042 86 155 3.0 7.0 0.00 0.00 0.00 72 1015.5
20260905155542 85 297 2.0 7.0 0.00 0.00 0.00 75 1015.7
20260905155042 85 155 2.0 7.0 0.00 0.00 0.00 74 1015.6
20260905154542 84 123 3.0 7.0 0.00 0.00 0.00 74 1015.5
20260905154042 84 161 4.0 11.0 0.00 0.00 0.00 75 1015.6
20260905153540 85 134 4.0 11.0 0.00 0.00 0.00 75 1015.5
20260905153044 84 115 3.0 8.0 0.00 0.00 0.00 76 1015.5
20260905153040 85 158 2.0 8.0 0.00 0.00 0.00 75 1015.5
20260905152039 84 205 2.0 6.0 0.00 0.00 0.00 77 1015.5
20260905151539 83 117 2.0 5.0 0.00 0.00 0.00 78 1015.5
20260905151040 83 117 2.0 6.0 0.00 0.00 0.00 79 1015.5
20260905150540 83 128 1.0 6.0 0.00 0.00 0.00 79 1015.6
20260905150040 82 124 1.0 6.0 0.00 0.00 0.00 79 1015.6
20260905145540 82 117 1.0 4.0 0.00 0.00 0.00 80 1015.6
20260905145040 82 118 1.0 2.0 0.00 0.00 0.00 80 1015.5
20260905144537 82 158 1.0 4.0 0.00 0.00 0.00 80 1015.5
20260905144038 82 156 1.0 4.0 0.00 0.00 0.00 80 1015.5
20260905143538 81 123 1.0 5.0 0.00 0.00 0.00 81 1015.5
20260905143038 81 123 1.0 5.0 0.00 0.00 0.00 81 1015.5
20260905142538 81 155 1.0 4.0 0.00 0.00 0.00 81 1015.5
20260905142038 81 132 1.0 2.0 0.00 0.00 0.00 82 1015.5
20260905141538 80 129 1.0 2.0 0.00 0.00 0.00 82 1015.5
20260905141038 80 129 0.0 2.0 0.00 0.00 0.00 82 1015.4
20260905140538 80 126 0.0 2.0 0.00 0.00 0.00 83 1015.2
20260905140035 79 178 0.0 1.0 0.00 0.00 0.00 84 1015.2
20260905135532 79 178 0.0 1.0 0.00 0.00 0.00 84 1015.2
20260905135032 79 178 0.0 0.0 0.00 0.00 0.00 84 1015.2
20260905134532 79 178 0.0 2.0 0.00 0.00 0.00 84 1015.1
20260905134034 79 178 0.0 2.0 0.00 0.00 0.00 84 1015.1
20260905134030 79 140 0.0 1.0 0.00 0.00 0.00 84 1015.0
20260905133030 79 140 0.0 1.0 0.00 0.00 0.00 84 1015.0
20260905132530 79 140 0.0 1.0 0.00 0.00 0.00 84 1015.0
20260905132029 79 106 0.0 2.0 0.00 0.00 0.00 84 1014.9
20260905131530 78 112 0.0 2.0 0.00 0.00 0.00 84 1014.9
20260905131030 78 111 0.0 1.0 0.00 0.00 0.00 85 1014.8
20260905130530 78 111 0.0 0.0 0.00 0.00 0.00 85 1014.8
20260905130034 78 111 0.0 1.0 0.00 0.00 0.00 85 1014.7
20260905130030 78 112 0.0 1.0 0.00 0.00 0.00 85 1014.7
20260905125030 77 111 0.0 0.0 0.00 0.00 0.00 85 1014.7
20260905124528 77 111 0.0 1.0 0.00 0.00 0.00 86 1014.6
20260905124028 77 111 0.0 1.0 0.00 0.00 0.00 85 1014.5
20260905123528 77 112 0.0 0.0 0.00 0.00 0.00 85 1014.5
20260905123028 77 111 0.0 0.0 0.00 0.00 0.00 85 1014.4
20260905122532 77 111 0.0 0.0 0.00 0.00 0.00 85 1014.4
20260905122528 77 112 0.0 0.0 0.00 0.00 0.00 85 1014.4
20260905121527 77 107 0.0 4.0 0.00 0.00 0.00 85 1014.4
20260905121028 77 107 0.0 4.0 0.00 0.00 0.00 85 1014.4
20260905120528 77 123 0.0 2.0 0.00 0.00 0.00 85 1014.4
20260905120032 77 123 0.0 1.0 0.00 0.00 0.00 85 1014.3
20260905120027 77 123 0.0 2.0 0.00 0.00 0.00 85 1014.3
20260905115028 77 123 0.0 1.0 0.00 0.00 0.00 85 1014.2
20260905114528 78 123 0.0 1.0 0.00 0.00 0.00 85 1014.2
20260905114028 78 124 0.0 1.0 0.00 0.00 0.00 84 1014.2
20260905113528 78 124 0.0 2.0 0.00 0.00 0.00 84 1014.2
20260905113026 78 124 0.0 2.0 0.00 0.00 0.00 84 1014.2
20260905112530 78 124 0.0 1.0 0.00 0.00 0.00 84 1014.0
20260905112526 78 124 0.0 1.0 0.00 0.00 0.00 84 1014.1
20260905111530 78 124 0.0 1.0 0.00 0.00 0.00 84 1014.1
20260905111526 78 124 0.0 1.0 0.00 0.00 0.00 84 1014.1
20260905111130 78 124 0.0 1.0 0.00 0.00 0.00 84 1014.1
20260905110026 78 124 0.0 1.0 0.00 0.00 0.00 84 1014.1
20260905105526 78 125 0.0 1.0 0.00 0.00 0.00 84 1014.1
20260905105026 78 124 0.0 2.0 0.00 0.00 0.00 84 1014.1
20260905104525 78 125 0.0 2.0 0.00 0.00 0.00 84 1014.1
20260905104028 78 124 0.0 1.0 0.00 0.00 0.00 84 1014.1
20260905104024 78 124 0.0 2.0 0.00 0.00 0.00 84 1014.2
20260905103028 78 124 0.0 2.0 0.00 0.00 0.00 84 1014.0
20260905103024 78 124 0.0 2.0 0.00 0.00 0.00 84 1014.0
20260905102628 78 125 0.0 4.0 0.00 0.00 0.00 84 1013.9
20260905101528 78 125 0.0 2.0 0.00 0.00 0.00 83 1014.0
20260905101524 78 125 0.0 4.0 0.00 0.00 0.00 83 1014.0
20260905100522 78 125 0.0 4.0 0.00 0.00 0.00 83 1014.0
20260905100022 78 125 1.0 4.0 0.00 0.00 0.00 83 1014.0
20260905095522 78 132 0.0 1.0 0.00 0.00 0.00 84 1014.1
20260905095027 79 133 0.0 4.0 0.00 0.00 0.00 83 1014.0
20260905095022 79 133 0.0 1.0 0.00 0.00 0.00 83 1014.0
20260905094024 79 119 1.0 2.0 0.00 0.00 0.00 83 1014.0
20260905094020 79 133 1.0 4.0 0.00 0.00 0.00 83 1014.0
20260905093020 79 124 0.0 2.0 0.00 0.00 0.00 83 1014.0
20260905092521 79 124 0.0 2.0 0.00 0.00 0.00 83 1014.0
20260905092017 79 130 0.0 2.0 0.00 0.00 0.00 83 1014.0
20260905091516 79 130 0.0 2.0 0.00 0.00 0.00 83 1013.9
20260905091016 79 112 0.0 2.0 0.00 0.00 0.00 83 1013.8
20260905090516 79 117 0.0 2.0 0.00 0.00 0.00 83 1013.8
20260905090016 79 147 1.0 2.0 0.00 0.00 0.00 83 1013.7
20260905085516 79 148 0.0 2.0 0.00 0.00 0.00 83 1013.7
20260905085020 79 117 0.0 2.0 0.00 0.00 0.00 83 1014.0
20260905085016 79 117 0.0 2.0 0.00 0.00 0.00 83 1013.9
20260905084621 79 126 1.0 2.0 0.00 0.00 0.00 83 1013.9
20260905083520 79 113 1.0 4.0 0.00 0.00 0.00 83 1014.1
20260905083516 79 128 0.0 4.0 0.00 0.00 0.00 83 1014.0
20260905082514 79 111 1.0 5.0 0.00 0.00 0.00 83 1014.1
20260905082014 79 110 1.0 5.0 0.00 0.00 0.00 83 1014.0
20260905081514 79 120 1.0 4.0 0.00 0.00 0.00 83 1014.0
20260905081014 79 123 1.0 4.0 0.00 0.00 0.00 83 1014.1
20260905080512 79 111 0.0 2.0 0.00 0.00 0.00 82 1014.1
20260905080011 79 111 0.0 2.0 0.00 0.00 0.00 82 1014.2
20260905075510 79 109 0.0 4.0 0.00 0.00 0.00 82 1014.1
20260905075011 79 109 0.0 4.0 0.00 0.00 0.00 82 1014.1
20260905074510 79 108 1.0 5.0 0.00 0.00 0.00 82 1014.1
20260905074010 79 109 1.0 5.0 0.00 0.00 0.00 81 1014.1
20260905073509 79 126 1.0 5.0 0.00 0.00 0.00 81 1014.1
20260905073008 80 110 1.0 4.0 0.00 0.00 0.00 81 1014.2
20260905072512 80 122 0.0 2.0 0.00 0.00 0.00 80 1014.3
20260905072508 80 92 0.0 2.0 0.00 0.00 0.00 81 1014.3
20260905071508 80 122 1.0 5.0 0.00 0.00 0.00 80 1014.4
20260905071009 80 122 1.0 5.0 0.00 0.00 0.00 80 1014.4
20260905070508 80 116 1.0 4.0 0.00 0.00 0.00 80 1014.5
20260905070013 80 123 0.0 2.0 0.00 0.00 0.00 79 1014.5
20260905070009 80 119 0.0 4.0 0.00 0.00 0.00 79 1014.5
20260905065008 80 123 1.0 2.0 0.00 0.00 0.00 79 1014.5
20260905064507 80 126 0.0 2.0 0.00 0.00 0.00 79 1014.6
20260905064010 80 112 1.0 6.0 0.00 0.00 0.00 78 1014.6
20260905064006 80 113 1.0 6.0 0.00 0.00 0.00 78 1014.5
20260905063610 81 125 1.0 5.0 0.00 0.00 0.00 78 1014.5
20260905062509 81 117 1.0 7.0 0.00 0.00 0.00 78 1014.4
20260905062505 81 116 2.0 8.0 0.00 0.00 0.00 77 1014.5
20260905061502 81 114 2.0 8.0 0.00 0.00 0.00 77 1014.5
20260905061003 81 103 2.0 8.0 0.00 0.00 0.00 77 1014.4
20260905060507 81 120 1.0 5.0 0.00 0.00 0.00 75 1014.4
20260905060503 81 114 1.0 5.0 0.00 0.00 0.00 76 1014.5
20260905055502 82 130 2.0 7.0 0.00 0.00 0.00 75 1014.4
20260905055003 82 119 2.0 7.0 0.00 0.00 0.00 75 1014.4
20260905054502 82 131 2.0 7.0 0.00 0.00 0.00 75 1014.5
20260905054002 82 133 2.0 6.0 0.00 0.00 0.00 74 1014.4
20260905053502 82 80 2.0 9.0 0.00 0.00 0.00 74 1014.4
20260905053000 82 111 2.0 9.0 0.00 0.00 0.00 74 1014.5
20260905052500 82 123 2.0 7.0 0.00 0.00 0.00 73 1014.5
20260905052005 82 164 1.0 5.0 0.00 0.00 0.00 72 1014.5
20260905052001 82 121 1.0 5.0 0.00 0.00 0.00 72 1014.5
20260905051000 83 219 1.0 5.0 0.00 0.00 0.00 72 1014.6
20260905050501 83 134 2.0 6.0 0.00 0.00 0.00 71 1014.5
20260905045959 83 117 2.0 7.0 0.00 0.00 0.00 70 1014.5
20260905045459 83 124 2.0 7.0 0.00 0.00 0.00 69 1014.3
20260905045000 83 169 2.0 10.0 0.00 0.00 0.00 68 1014.4
20260905044504 83 128 2.0 9.0 0.00 0.00 0.00 67 1014.4
20260905044502 83 88 3.0 10.0 0.00 0.00 0.00 68 1014.4
20260905043457 83 128 2.0 9.0 0.00 0.00 0.00 67 1014.4
20260905042957 84 114 2.0 6.0 0.00 0.00 0.00 66 1014.5
20260905042459 84 122 2.0 6.0 0.00 0.00 0.00 65 1014.5
20260905041957 84 107 2.0 7.0 0.00 0.00 0.00 65 1014.5
20260905041503 84 123 2.0 7.0 0.00 0.00 0.00 64 1014.4
20260905041458 84 148 2.0 7.0 0.00 0.00 0.00 64 1014.4
20260905040458 84 146 2.0 7.0 0.00 0.00 0.00 63 1014.3
20260905035958 84 117 2.0 8.0 0.00 0.00 0.00 62 1014.3
20260905035456 85 95 2.0 8.0 0.00 0.00 0.00 62 1014.2
20260905034955 85 121 2.0 7.0 0.00 0.00 0.00 63 1014.2
20260905034456 85 119 2.0 7.0 0.00 0.00 0.00 63 1014.2
20260905033958 85 113 2.0 7.0 0.00 0.00 0.00 64 1014.2
20260905033954 85 136 2.0 7.0 0.00 0.00 0.00 63 1014.2
20260905032952 85 64 2.0 8.0 0.00 0.00 0.00 64 1014.3
20260905032452 85 83 2.0 8.0 0.00 0.00 0.00 64 1014.1
20260905031950 85 121 3.0 10.0 0.00 0.00 0.00 64 1014.1
20260905031450 85 112 3.0 10.0 0.00 0.00 0.00 64 1014.0
20260905030947 85 99 2.0 7.0 0.00 0.00 0.00 64 1014.0
20260905030446 85 162 3.0 8.0 0.00 0.00 0.00 64 1014.0
20260905025946 85 91 3.0 8.0 0.00 0.00 0.00 63 1013.9
20260905025445 85 124 3.0 7.0 0.00 0.00 0.00 63 1013.9
20260905024943 85 103 3.0 10.0 0.00 0.00 0.00 63 1013.7
20260905024444 85 118 3.0 10.0 0.00 0.00 0.00 62 1013.6
20260905023943 85 98 3.0 9.0 0.00 0.00 0.00 62 1013.4
20260905023443 85 111 2.0 8.0 0.00 0.00 0.00 61 1013.4
20260905022944 85 101 2.0 7.0 0.00 0.00 0.00 61 1013.4
20260905022444 85 76 2.0 8.0 0.00 0.00 0.00 61 1013.3
20260905021943 86 136 3.0 9.0 0.00 0.00 0.00 60 1013.3
20260905021444 86 115 3.0 9.0 0.00 0.00 0.00 61 1013.2
20260905020944 85 78 3.0 8.0 0.00 0.00 0.00 61 1013.1
20260905020443 85 64 3.0 8.0 0.00 0.00 0.00 61 1013.1
20260905015944 85 76 3.0 7.0 0.00 0.00 0.00 62 1012.9
20260905015444 85 67 2.0 7.0 0.00 0.00 0.00 62 1012.9
20260905014944 85 84 1.0 7.0 0.00 0.00 0.00 63 1012.8
20260905014444 85 91 0.0 4.0 0.00 0.00 0.00 64 1012.8
20260905013948 85 98 0.0 2.0 0.00 0.00 0.00 65 1012.7
20260905013944 84 98 0.0 1.0 0.00 0.00 0.00 65 1012.8
20260905012944 85 98 0.0 2.0 0.00 0.00 0.00 65 1012.7
20260905012442 85 98 0.0 1.0 0.00 0.00 0.00 65 1012.6
20260905011941 85 98 0.0 1.0 0.00 0.00 0.00 65 1012.6
20260905011446 85 98 0.0 1.0 0.00 0.00 0.00 64 1012.6
20260905011442 85 98 0.0 1.0 0.00 0.00 0.00 64 1012.6
20260905010442 85 98 0.0 1.0 0.00 0.00 0.00 64 1012.7
20260905005942 86 98 0.0 1.0 0.00 0.00 0.00 64 1012.7
20260905005441 86 98 0.0 2.0 0.00 0.00 0.00 63 1012.6
20260905004940 86 98 0.0 2.0 0.00 0.00 0.00 63 1012.6
20260905004440 87 98 0.0 1.0 0.00 0.00 0.00 62 1012.6
20260905003940 87 98 0.0 1.0 0.00 0.00 0.00 62 1012.6
20260905003440 87 98 0.0 1.0 0.00 0.00 0.00 61 1012.6
20260905002939 88 98 0.0 1.0 0.00 0.00 0.00 60 1012.6
20260905002440 88 98 0.0 1.0 0.00 0.00 0.00 60 1012.5
20260905001940 88 98 0.0 1.0 0.00 0.00 0.00 59 1012.5
20260905001439 88 98 1.0 6.0 0.00 0.00 0.00 59 1012.5
20260905000940 89 98 1.0 6.0 0.00 0.00 0.00 59 1012.4
20260905000439 89 109 1.0 4.0 0.00 0.00 0.00 59 1012.4
20260904235935 89 143 1.0 4.0 0.00 0.00 0.00 59 1012.3
20260904235436 89 88 2.0 8.0 0.00 0.00 0.00 59 1012.3
20260904234936 89 68 3.0 8.0 0.00 0.00 0.00 59 1012.2
20260904234436 89 30 3.0 8.0 0.00 0.00 0.00 58 1012.3
20260904233933 89 72 3.0 9.0 0.00 0.00 0.00 58 1012.2
20260904233434 89 88 3.0 9.0 0.00 0.00 0.00 58 1012.1
20260904232934 90 110 4.0 9.0 0.00 0.00 0.00 58 1012.2
20260904232438 90 53 4.0 9.0 0.00 0.00 0.00 58 1012.0
20260904232434 90 107 4.0 9.0 0.00 0.00 0.00 57 1012.0
20260904231434 90 34 5.0 12.0 0.00 0.00 0.00 58 1012.0
20260904230933 90 76 5.0 12.0 0.00 0.00 0.00 58 1012.0
20260904230438 89 92 4.0 8.0 0.00 0.00 0.00 56 1012.1
20260904230434 90 42 4.0 9.0 0.00 0.00 0.00 58 1012.1
20260904225434 89 82 4.0 9.0 0.00 0.00 0.00 55 1012.2
20260904224934 89 76 4.0 9.0 0.00 0.00 0.00 55 1012.1
20260904224434 89 69 4.0 9.0 0.00 0.00 0.00 56 1012.2
20260904223932 89 50 3.0 9.0 0.00 0.00 0.00 55 1012.3
20260904223432 89 39 4.0 9.0 0.00 0.00 0.00 55 1012.3
20260904222932 89 33 4.0 9.0 0.00 0.00 0.00 56 1012.4
20260904222431 89 119 3.0 9.0 0.00 0.00 0.00 58 1012.4
20260904221926 89 67 4.0 8.0 0.00 0.00 0.00 62 1012.5
20260904221426 89 5 4.0 8.0 0.00 0.00 0.00 62 1012.6
20260904220926 89 78 4.0 10.0 0.00 0.00 0.00 65 1012.6
20260904220425 89 43 5.0 10.0 0.00 0.00 0.00 65 1012.8
20260904215926 89 65 4.0 10.0 0.00 0.00 0.00 65 1012.8
20260904215426 89 25 5.0 10.0 0.00 0.00 0.00 65 1012.8
20260904214925 89 126 6.0 10.0 0.00 0.00 0.00 66 1013.0
20260904214426 89 64 4.0 10.0 0.00 0.00 0.00 66 1013.0
20260904213924 89 91 4.0 9.0 0.00 0.00 0.00 68 1013.1
20260904213424 89 71 5.0 12.0 0.00 0.00 0.00 67 1013.1
20260904212924 89 53 4.0 12.0 0.00 0.00 0.00 65 1013.1
20260904212424 89 103 3.0 9.0 0.00 0.00 0.00 65 1013.1
20260904211924 89 80 4.0 9.0 0.00 0.00 0.00 64 1013.1
20260904211424 89 112 3.0 8.0 0.00 0.00 0.00 66 1013.2
20260904210924 89 47 2.0 7.0 0.00 0.00 0.00 67 1013.3
20260904210424 88 53 3.0 9.0 0.00 0.00 0.00 67 1013.3
20260904205930 88 65 3.0 7.0 0.00 0.00 0.00 68 1013.5
20260904205926 88 102 3.0 9.0 0.00 0.00 0.00 67 1013.3